Location: Austin
(30.3000°N, 97.7500°W)
Time: 04:10:14
(UTC-06:00)

YAOGAN 1 - Pass Details

Date: 14 November 2024
Orbit: 609 x 611 km, 97.8° (Epoch: 05 December)

Event Time Altitude Azimuth Distance (km) Brightness Sun altitude
Rises 20:05:33 0° 196° (SSW) 2,858 6.2 -32.6°
Reaches altitude 10° 20:08:07 10° 212° (SSW) 1,958 5.5 -33.1°
Maximum altitude 20:11:27 22° 264° (W) 1,332 4.8 -33.8°
Drops below altitude 10° 20:14:48 10° 316° (NW) 1,966 5.5 -34.6°
Sets 20:17:23 0° 331° (NNW) 2,874 6.3 -35.1°
